Tenerife > ESTACION METEOROLÓGICA La Cuesta - San Cristóbal de La Laguna

DATOS ACTUALES Online

Ultima actulizacion 10 minutos

19.7 ºC

Temperatura

97

Humedad (%)

974.4

Presión (mb)

0

Precipitación (mm)

17.6 O

Viento (Km/h)

DATOS DIARIOS

Temperatura últimas 24 horas (ºC)

Humedad últimas 24 horas (%)

Presión atmosférica últimas 24 horas (mb)

Precipitaciones últimas 23 horas (mm)

Viento últimas 24 horas (Km/h)

Hora Temperatura (°C) ºC Precipitación (mm) mm Presión (mb) mb Humedad (%) % Viento (Km/h) km/h
24 - 23:00 21.2 0 977 77 16.7 S
25 - 00:00 21 0 977 81 18.8 O
25 - 01:00 20.9 0 977 79 13.9 SO
25 - 02:00 20.7 0 976 84 13.9 O
25 - 03:00 20.3 0 976 87 14.1 SO
25 - 04:00 19.9 0 975 90 12.3 SO
25 - 05:00 19.5 0 975 92 9.2 SO
25 - 06:00 19.3 0 975 89 9.4 S
25 - 07:00 19.4 0 976 91 6.4 S
25 - 08:00 19 0 976 90 16.8 O
25 - 09:00 18.7 0 976 91 4.2 W
25 - 10:00 18.9 0 977 92 9 O
25 - 11:00 18.4 0 977 95 14.1 SO
25 - 12:00 18.3 0 977 96 11.2 SO
25 - 13:00 18.6 0 977 96 3.8 O
25 - 14:00 18.9 0 976 96 7 O
25 - 15:00 19.4 0 975 95 9.6 SO
25 - 16:00 19.4 0 975 96 15.9 O
25 - 17:00 19.5 0 974 97 15.2 SO
25 - 18:00 19.2 0 975 97 17.1 O
25 - 19:00 19.1 0 975 98 15.7 O
25 - 20:00 19.1 0 975 98 15.9 O
25 - 21:00 19.1 0 975 98 14.8 O
25 - 22:00 19.4 0 975 97 12.9 O
25 - 23:00 19.7 0 974 97 17.6 O
Apalmet utiliza cookies propias y de terceros para mejorar la usabilidad y la experiencia web. Política de cookies.